Year,Month,Day,Hour,Minute,Value (Times are PST for temperature in C)
2019,01,26,13,03,8.00
2019,01,26,13,04,8.00
2019,01,26,13,05,8.00
2019,01,26,13,06,8.00
2019,01,26,13,07,7.90
2019,01,26,13,08,7.90
2019,01,26,13,09,7.90
2019,01,26,13,10,7.90
2019,01,26,13,11,7.90
2019,01,26,13,12,7.90
2019,01,26,13,13,7.90
2019,01,26,13,14,7.90
2019,01,26,13,15,7.90
2019,01,26,13,16,7.90
2019,01,26,13,17,7.80
2019,01,26,13,18,7.80
2019,01,26,13,19,7.80
2019,01,26,13,20,7.80
2019,01,26,13,21,7.80
2019,01,26,13,22,7.80
2019,01,26,13,23,7.80
2019,01,26,13,24,7.80
2019,01,26,13,25,7.80
2019,01,26,13,26,7.80
2019,01,26,13,27,7.80
2019,01,26,13,28,7.80
2019,01,26,13,29,7.80
2019,01,26,13,30,7.80
2019,01,26,13,31,7.80
2019,01,26,13,32,7.80
2019,01,26,13,33,7.80
2019,01,26,13,34,7.80
2019,01,26,13,35,7.80
2019,01,26,13,36,7.80
2019,01,26,13,37,7.80
2019,01,26,13,38,7.80
2019,01,26,13,39,7.80
2019,01,26,13,40,7.80
2019,01,26,13,41,7.80
2019,01,26,13,42,7.80
2019,01,26,13,43,7.80
2019,01,26,13,44,7.80
2019,01,26,13,45,7.90
2019,01,26,13,46,7.90
2019,01,26,13,47,7.90
2019,01,26,13,48,7.80
2019,01,26,13,49,7.80
2019,01,26,13,50,7.80
2019,01,26,13,51,7.80
2019,01,26,13,52,7.80
2019,01,26,13,53,7.80
2019,01,26,13,54,7.80
2019,01,26,13,55,7.80
2019,01,26,13,56,7.80
2019,01,26,13,57,7.90
2019,01,26,13,58,7.90
2019,01,26,13,59,7.90
2019,01,26,14,00,7.90
2019,01,26,14,01,7.90
2019,01,26,14,02,7.90
2019,01,26,14,03,7.90
2019,01,26,14,04,7.90
2019,01,26,14,05,8.00
2019,01,26,14,06,8.00
2019,01,26,14,07,8.00
2019,01,26,14,08,8.00
2019,01,26,14,09,8.00
2019,01,26,14,10,8.00
2019,01,26,14,11,7.90
2019,01,26,14,12,7.90
2019,01,26,14,13,8.00
2019,01,26,14,14,8.00
2019,01,26,14,15,8.00
2019,01,26,14,16,8.00
2019,01,26,14,17,8.00
2019,01,26,14,18,8.10
2019,01,26,14,19,8.10
2019,01,26,14,20,8.00
2019,01,26,14,21,8.00
2019,01,26,14,22,7.90
2019,01,26,14,23,7.90
2019,01,26,14,24,7.90
2019,01,26,14,25,7.90
2019,01,26,14,26,7.90
2019,01,26,14,27,7.90
2019,01,26,14,28,7.90
2019,01,26,14,29,7.90
2019,01,26,14,30,7.90
2019,01,26,14,31,7.90
2019,01,26,14,32,7.90
2019,01,26,14,33,7.90
2019,01,26,14,34,7.90
2019,01,26,14,35,7.90
2019,01,26,14,36,7.90
2019,01,26,14,37,7.90
2019,01,26,14,38,7.90
2019,01,26,14,39,7.80
2019,01,26,14,40,7.80
2019,01,26,14,41,7.80
2019,01,26,14,42,7.80
2019,01,26,14,43,7.80
2019,01,26,14,44,7.80
2019,01,26,14,45,7.80
2019,01,26,14,46,7.80
2019,01,26,14,47,7.70
2019,01,26,14,48,7.70
2019,01,26,14,49,7.70
2019,01,26,14,50,7.70
2019,01,26,14,51,7.70
2019,01,26,14,52,7.70
2019,01,26,14,53,7.70
2019,01,26,14,54,7.70
2019,01,26,14,55,7.70
2019,01,26,14,56,7.70
2019,01,26,14,57,7.70
2019,01,26,14,58,7.70
2019,01,26,14,59,7.70
2019,01,26,15,00,7.70
2019,01,26,15,01,7.80
2019,01,26,15,02,7.80
2019,01,26,15,03,7.80
2019,01,26,15,04,7.80
2019,01,26,15,05,7.80
2019,01,26,15,06,7.80
2019,01,26,15,07,7.80
2019,01,26,15,08,7.80
2019,01,26,15,09,7.80
2019,01,26,15,10,7.80
2019,01,26,15,11,7.80
2019,01,26,15,12,7.80
2019,01,26,15,13,7.80
2019,01,26,15,14,7.80
2019,01,26,15,15,7.80
2019,01,26,15,16,7.80
2019,01,26,15,17,7.80
2019,01,26,15,18,7.80
2019,01,26,15,19,7.80
2019,01,26,15,20,7.70
2019,01,26,15,21,7.70
2019,01,26,15,22,7.70
2019,01,26,15,23,7.70
2019,01,26,15,24,7.80
2019,01,26,15,25,7.80
2019,01,26,15,26,7.80
2019,01,26,15,27,7.80
2019,01,26,15,28,7.70
2019,01,26,15,29,7.70
2019,01,26,15,30,7.70
2019,01,26,15,31,7.70
2019,01,26,15,32,7.70
2019,01,26,15,33,7.70
2019,01,26,15,34,7.70
2019,01,26,15,35,7.70
2019,01,26,15,36,7.70
2019,01,26,15,37,7.70
2019,01,26,15,38,7.70
2019,01,26,15,39,7.70
2019,01,26,15,40,7.70
2019,01,26,15,41,7.70
2019,01,26,15,42,7.70
2019,01,26,15,43,7.70
2019,01,26,15,44,7.60
2019,01,26,15,45,7.60
2019,01,26,15,46,7.60
2019,01,26,15,47,7.60
2019,01,26,15,48,7.60
2019,01,26,15,49,7.60
2019,01,26,15,50,7.60
2019,01,26,15,51,7.60
2019,01,26,15,52,7.60
2019,01,26,15,53,7.60
2019,01,26,15,54,7.60
2019,01,26,15,55,7.60
2019,01,26,15,56,7.60
2019,01,26,15,57,7.60
2019,01,26,15,58,7.60
2019,01,26,15,59,7.50
2019,01,26,16,00,7.50
2019,01,26,16,01,7.50
2019,01,26,16,02,7.50
2019,01,26,16,03,7.50
2019,01,26,16,04,7.50
2019,01,26,16,05,7.50
2019,01,26,16,06,7.50
2019,01,26,16,07,7.50
2019,01,26,16,08,7.50
2019,01,26,16,09,7.50
2019,01,26,16,10,7.50
2019,01,26,16,11,7.40
2019,01,26,16,12,7.40
2019,01,26,16,13,7.40
2019,01,26,16,14,7.40
2019,01,26,16,15,7.40
2019,01,26,16,16,7.40
2019,01,26,16,17,7.40
2019,01,26,16,18,7.40
2019,01,26,16,19,7.40
2019,01,26,16,20,7.40
2019,01,26,16,21,7.40
2019,01,26,16,22,7.40
2019,01,26,16,23,7.40
2019,01,26,16,24,7.40
2019,01,26,16,25,7.40
2019,01,26,16,26,7.40
2019,01,26,16,27,7.40
2019,01,26,16,28,7.40
2019,01,26,16,29,7.40
2019,01,26,16,30,7.40
2019,01,26,16,31,7.40
2019,01,26,16,32,7.40
2019,01,26,16,33,7.30
2019,01,26,16,34,7.30
2019,01,26,16,35,7.30
2019,01,26,16,36,7.30
2019,01,26,16,37,7.30
2019,01,26,16,38,7.30
2019,01,26,16,39,7.30
2019,01,26,16,40,7.30
2019,01,26,16,41,7.30
2019,01,26,16,42,7.30
2019,01,26,16,43,7.30
2019,01,26,16,44,7.30
2019,01,26,16,45,7.30
2019,01,26,16,46,7.20
2019,01,26,16,47,7.20
2019,01,26,16,48,7.20
2019,01,26,16,49,7.20
2019,01,26,16,50,7.20
2019,01,26,16,51,7.20
2019,01,26,16,52,7.20
2019,01,26,16,53,7.20
2019,01,26,16,54,7.20
2019,01,26,16,55,7.20
2019,01,26,16,56,7.20
2019,01,26,16,57,7.20
2019,01,26,16,58,7.20
2019,01,26,16,59,7.20
2019,01,26,17,00,7.10
2019,01,26,17,01,7.10
2019,01,26,17,02,7.10
2019,01,26,17,03,7.10
2019,01,26,17,04,7.10
2019,01,26,17,05,7.10
2019,01,26,17,06,7.10
2019,01,26,17,07,7.10
2019,01,26,17,08,7.10
2019,01,26,17,09,7.10
2019,01,26,17,10,7.10
2019,01,26,17,11,7.10
2019,01,26,17,12,7.10
2019,01,26,17,13,7.10
2019,01,26,17,14,7.10
2019,01,26,17,15,7.10
2019,01,26,17,16,7.00
2019,01,26,17,17,7.10
2019,01,26,17,18,7.00
2019,01,26,17,19,7.00
2019,01,26,17,20,7.00
2019,01,26,17,21,7.00
2019,01,26,17,22,7.00
2019,01,26,17,23,6.90
2019,01,26,17,24,6.90
2019,01,26,17,25,6.90
2019,01,26,17,26,6.90
2019,01,26,17,27,6.90
2019,01,26,17,28,6.90
2019,01,26,17,29,6.90
2019,01,26,17,30,6.90
2019,01,26,17,31,6.90
2019,01,26,17,32,6.90
2019,01,26,17,33,6.90
2019,01,26,17,34,6.90
2019,01,26,17,35,6.90
2019,01,26,17,36,6.90
2019,01,26,17,37,6.90
2019,01,26,17,38,6.90
2019,01,26,17,39,6.90
2019,01,26,17,40,6.90
2019,01,26,17,41,6.90
2019,01,26,17,42,6.90
2019,01,26,17,43,6.90
2019,01,26,17,44,6.80
2019,01,26,17,45,6.80
2019,01,26,17,46,6.80
2019,01,26,17,47,6.80
2019,01,26,17,48,6.80
2019,01,26,17,49,6.80
2019,01,26,17,50,6.80
2019,01,26,17,51,6.80
2019,01,26,17,52,6.80
2019,01,26,17,53,6.80
2019,01,26,17,54,6.80
2019,01,26,17,55,6.80
2019,01,26,17,56,6.80
2019,01,26,17,57,6.70
2019,01,26,17,58,6.70
2019,01,26,17,59,6.70
2019,01,26,18,00,6.70
2019,01,26,18,01,6.70
2019,01,26,18,02,6.70
2019,01,26,18,03,6.70
2019,01,26,18,04,6.70
2019,01,26,18,05,6.70
2019,01,26,18,06,6.70
2019,01,26,18,07,6.70
2019,01,26,18,08,6.70
2019,01,26,18,09,6.70
2019,01,26,18,10,6.70
2019,01,26,18,11,6.70
2019,01,26,18,12,6.70
2019,01,26,18,13,6.70
2019,01,26,18,14,6.70
2019,01,26,18,15,6.70
2019,01,26,18,16,6.70
2019,01,26,18,17,6.70
2019,01,26,18,18,6.70
2019,01,26,18,19,6.70
2019,01,26,18,20,6.70
2019,01,26,18,21,6.70
2019,01,26,18,22,6.70
2019,01,26,18,23,6.70
2019,01,26,18,24,6.70
2019,01,26,18,25,6.70
2019,01,26,18,26,6.60
2019,01,26,18,27,6.60
2019,01,26,18,28,6.60
2019,01,26,18,29,6.60
2019,01,26,18,30,6.60
2019,01,26,18,31,6.60
2019,01,26,18,32,6.60
2019,01,26,18,33,6.60
2019,01,26,18,34,6.60
2019,01,26,18,35,6.60
2019,01,26,18,36,6.60
2019,01,26,18,37,6.60
2019,01,26,18,38,6.60
2019,01,26,18,39,6.60
2019,01,26,18,40,6.60
2019,01,26,18,41,6.60
2019,01,26,18,42,6.60
2019,01,26,18,43,6.60
2019,01,26,18,44,6.60
2019,01,26,18,45,6.60
2019,01,26,18,46,6.60
2019,01,26,18,47,6.60
2019,01,26,18,48,6.60
2019,01,26,18,49,6.60
2019,01,26,18,50,6.60
2019,01,26,18,51,6.60
2019,01,26,18,52,6.60
2019,01,26,18,53,6.60
2019,01,26,18,54,6.60
2019,01,26,18,55,6.50
2019,01,26,18,56,6.50
2019,01,26,18,57,6.50
2019,01,26,18,58,6.50
2019,01,26,18,59,6.50
2019,01,26,19,00,6.50
2019,01,26,19,01,6.50
2019,01,26,19,02,6.50
2019,01,26,19,03,6.50
2019,01,26,19,04,6.50
2019,01,26,19,05,6.50
2019,01,26,19,06,6.50
2019,01,26,19,07,6.50
2019,01,26,19,08,6.50
2019,01,26,19,09,6.50
2019,01,26,19,10,6.50
2019,01,26,19,11,6.50
2019,01,26,19,12,6.50
2019,01,26,19,13,6.50
2019,01,26,19,14,6.50
2019,01,26,19,15,6.40
2019,01,26,19,16,6.40
2019,01,26,19,17,6.40
2019,01,26,19,18,6.40
2019,01,26,19,19,6.40
2019,01,26,19,20,6.40
2019,01,26,19,21,6.40
2019,01,26,19,22,6.40
2019,01,26,19,23,6.40
2019,01,26,19,24,6.40
2019,01,26,19,25,6.40
2019,01,26,19,26,6.30
2019,01,26,19,27,6.30
2019,01,26,19,28,6.30
2019,01,26,19,29,6.30
2019,01,26,19,30,6.30
2019,01,26,19,31,6.30
2019,01,26,19,32,6.30
2019,01,26,19,33,6.30
2019,01,26,19,34,6.30
2019,01,26,19,35,6.30
2019,01,26,19,36,6.30
2019,01,26,19,37,6.30
2019,01,26,19,38,6.30
2019,01,26,19,39,6.30
2019,01,26,19,40,6.20
2019,01,26,19,41,6.20
2019,01,26,19,42,6.20
2019,01,26,19,43,6.20
2019,01,26,19,44,6.20
2019,01,26,19,45,6.20
2019,01,26,19,46,6.20
2019,01,26,19,47,6.20
2019,01,26,19,48,6.20
2019,01,26,19,49,6.20
2019,01,26,19,50,6.10
2019,01,26,19,51,6.10
2019,01,26,19,52,6.10
2019,01,26,19,53,6.10
2019,01,26,19,54,6.10
2019,01,26,19,55,6.10
2019,01,26,19,56,6.10
2019,01,26,19,57,6.10
2019,01,26,19,58,6.10
2019,01,26,19,59,6.10
2019,01,26,20,00,6.10
2019,01,26,20,01,6.10
2019,01,26,20,02,6.10
2019,01,26,20,03,6.10
2019,01,26,20,04,6.10
2019,01,26,20,05,6.10
2019,01,26,20,06,6.10
2019,01,26,20,07,6.10
2019,01,26,20,08,6.10
2019,01,26,20,09,6.10
2019,01,26,20,10,6.10
2019,01,26,20,11,6.10
2019,01,26,20,12,6.10
2019,01,26,20,13,6.10
2019,01,26,20,14,6.10
2019,01,26,20,15,6.10
2019,01,26,20,16,6.10
2019,01,26,20,17,6.10
2019,01,26,20,18,6.10
2019,01,26,20,19,6.10
2019,01,26,20,20,6.10
2019,01,26,20,21,6.10
2019,01,26,20,22,6.10
2019,01,26,20,23,6.10
2019,01,26,20,24,6.10
2019,01,26,20,25,6.10
2019,01,26,20,26,6.10
2019,01,26,20,27,6.10
2019,01,26,20,28,6.10
2019,01,26,20,29,6.10
2019,01,26,20,30,6.10
2019,01,26,20,31,6.10
2019,01,26,20,32,6.10
2019,01,26,20,33,6.10
2019,01,26,20,34,6.10
2019,01,26,20,35,6.10
2019,01,26,20,36,6.00
2019,01,26,20,37,6.10
2019,01,26,20,38,6.00
2019,01,26,20,39,6.00
2019,01,26,20,40,6.00
2019,01,26,20,41,6.00
2019,01,26,20,42,6.00
2019,01,26,20,43,6.00
2019,01,26,20,44,6.00
2019,01,26,20,45,6.00
2019,01,26,20,46,6.00
2019,01,26,20,47,6.00
2019,01,26,20,48,6.00
2019,01,26,20,49,6.00
2019,01,26,20,50,6.00
2019,01,26,20,51,6.00
2019,01,26,20,52,6.00
2019,01,26,20,53,6.00
2019,01,26,20,54,6.00
2019,01,26,20,55,6.00
2019,01,26,20,56,6.10
2019,01,26,20,57,6.10
2019,01,26,20,58,6.10
2019,01,26,20,59,6.10
2019,01,26,21,00,6.10
2019,01,26,21,01,6.10
2019,01,26,21,02,6.10
2019,01,26,21,03,6.10
2019,01,26,21,04,6.10
2019,01,26,21,05,6.10
2019,01,26,21,06,6.10
2019,01,26,21,07,6.10
2019,01,26,21,08,6.10
2019,01,26,21,09,6.10
2019,01,26,21,10,6.10
2019,01,26,21,11,6.10
2019,01,26,21,12,6.10
2019,01,26,21,13,6.10
2019,01,26,21,14,6.10
2019,01,26,21,15,6.10
2019,01,26,21,16,6.10
2019,01,26,21,17,6.10
2019,01,26,21,18,6.10
2019,01,26,21,19,6.10
2019,01,26,21,20,6.10
2019,01,26,21,21,6.10
2019,01,26,21,22,6.10
2019,01,26,21,23,6.10
2019,01,26,21,24,6.10
2019,01,26,21,25,6.10
2019,01,26,21,26,6.10
2019,01,26,21,27,6.10
2019,01,26,21,28,6.10
2019,01,26,21,29,6.10
2019,01,26,21,30,6.10
2019,01,26,21,31,6.10
2019,01,26,21,32,6.10
2019,01,26,21,33,6.10
2019,01,26,21,34,6.10
2019,01,26,21,35,6.10
2019,01,26,21,36,6.10
2019,01,26,21,37,6.10
2019,01,26,21,38,6.10
2019,01,26,21,39,6.10
2019,01,26,21,40,6.10
2019,01,26,21,41,6.10
2019,01,26,21,42,6.10
2019,01,26,21,43,6.10
2019,01,26,21,44,6.10
2019,01,26,21,45,6.10
2019,01,26,21,46,6.20
2019,01,26,21,47,6.20
2019,01,26,21,48,6.20
2019,01,26,21,49,6.20
2019,01,26,21,50,6.20
2019,01,26,21,51,6.20
2019,01,26,21,52,6.20
2019,01,26,21,53,6.20
2019,01,26,21,54,6.20
2019,01,26,21,55,6.20
2019,01,26,21,56,6.20
2019,01,26,21,57,6.20
2019,01,26,21,58,6.20
2019,01,26,21,59,6.20
2019,01,26,22,00,6.20
2019,01,26,22,01,6.20
2019,01,26,22,02,6.20
2019,01,26,22,03,6.20
2019,01,26,22,04,6.20
2019,01,26,22,05,6.20
2019,01,26,22,06,6.20
2019,01,26,22,07,6.20
2019,01,26,22,08,6.20
2019,01,26,22,09,6.20
2019,01,26,22,10,6.20
2019,01,26,22,11,6.20
2019,01,26,22,12,6.20
2019,01,26,22,13,6.20
2019,01,26,22,14,6.20
2019,01,26,22,15,6.20
2019,01,26,22,47,6.10
2019,01,26,22,48,6.10
2019,01,26,22,49,6.10
2019,01,26,22,50,6.10
2019,01,26,22,51,6.10
2019,01,26,22,52,6.10
2019,01,26,22,53,6.10
2019,01,26,22,54,6.10
2019,01,26,22,55,6.10
2019,01,26,22,56,6.10
2019,01,26,22,57,6.10
2019,01,26,22,58,6.10
2019,01,26,22,59,6.10
2019,01,26,23,00,6.10
2019,01,26,23,01,6.10
2019,01,26,23,02,6.10
2019,01,26,23,03,6.10
2019,01,26,23,04,6.10
2019,01,26,23,05,6.10
2019,01,26,23,06,6.10
2019,01,26,23,07,6.10
2019,01,26,23,08,6.10
2019,01,26,23,09,6.10
2019,01,26,23,10,6.10
2019,01,26,23,11,6.10
2019,01,26,23,12,6.10
2019,01,26,23,13,6.10
2019,01,26,23,14,6.10
2019,01,26,23,15,6.10
2019,01,26,23,16,6.10
2019,01,26,23,17,6.10
2019,01,26,23,18,6.10
2019,01,26,23,19,6.10
2019,01,26,23,20,6.10
2019,01,26,23,21,6.00
2019,01,26,23,22,6.00
2019,01,26,23,23,6.00
2019,01,26,23,24,6.00
2019,01,26,23,25,6.00
2019,01,26,23,26,6.00
2019,01,26,23,27,6.00
2019,01,26,23,28,6.00
2019,01,26,23,29,6.00
2019,01,26,23,30,6.00
2019,01,26,23,31,6.00
2019,01,26,23,32,6.00
2019,01,26,23,33,6.00
2019,01,26,23,34,6.00
2019,01,26,23,35,6.00
2019,01,26,23,36,6.00
2019,01,26,23,37,6.00
2019,01,26,23,38,6.00
2019,01,26,23,39,6.00
2019,01,26,23,40,6.00
2019,01,26,23,41,6.00
2019,01,26,23,42,6.00
2019,01,26,23,43,6.00
2019,01,26,23,44,6.00
2019,01,26,23,45,6.00
2019,01,26,23,46,6.00
2019,01,26,23,47,6.00
2019,01,26,23,48,6.00
2019,01,26,23,49,6.00
2019,01,26,23,50,6.00
2019,01,26,23,51,6.00
2019,01,26,23,52,5.90
2019,01,26,23,53,5.90
2019,01,26,23,54,5.90
2019,01,26,23,55,5.90
2019,01,26,23,56,5.90
2019,01,26,23,57,5.90
2019,01,26,23,58,5.90
2019,01,26,23,59,5.90
